070813 300  0.0   0.3-    070816 704  0.3-  0.1+    070817 300  0.6+  0.1-  

070813 300  0.0   0.3-    070816 704  1.1+  0.7-    070817 300  0.4+  0.4-  

070813 300  0.1+  0.2-    070816 704  0.9-  1.8+    070819 300  0.6+  0.3+  

070813 300  0.3-  0.3-    070816 300  0.2+  0.0     070819 300  0.9+  0.4-  

070813 300  0.0   0.4-    070816 300  0.2-  0.8-    070820 300  0.6-  0.4+  

070814 300  0.5+  1.1+    070816 300  0.2+  0.8-    070820 300  0.5-  0.1+  

070814 300  0.3+  0.3+    070816 A77  1.0-  0.5-                            

070814 300  0.1-  0.8+    070816 A77  0.7+  0.3-                            

 

 

2007 PE28 (A00353)

Epoch 2007 Aug. 8.0 TT = JDT 2454320.5                  Nakano

M  45.42710              (2000.0)            P               Q

n   0.22899035     Peri.  336.77416     -0.12490544     +0.97314056

a   2.6460087      Node   285.60367     -0.87589801     -0.19970636

e   0.1926274      Incl.   11.58260     -0.46604861     +0.11451994

P   4.30           H   16.2           G   0.15           U   *

Residuals in seconds of arc 

070812 704  0.5-  0.3+    070812 704  0.5+  1.0-    070815 300  0.1+  0.2+  

070812 704  0.0   0.5+    070814 300  0.2+  0.2+    070815 300  0.1-  0.1-  

070812 704  0.1-  0.0     070814 300  0.4-  0.1+                            

070812 704  0.1+  0.2+    070814 300  0.2+  0.4-                            

 

 

2007 PG28 (A00354) = 2006 OW12

Epoch 2007 Oct. 27.0 TT = JDT 2454400.5                 Nakano

M 329.69066              (2000.0)            P               Q

n   0.08280169     Peri.   96.98717     +0.97040869     -0.15826246

a   5.2132663      Node   272.23738     +0.07441896     +0.91452155

e   0.0324692      Incl.   10.51613     +0.22971459     +0.37229469

P  11.90           H   13.0           G   0.15           U   5

Residuals in seconds of arc 

060720 644  0.1+  0.1+    060726 644  0.3-  0.0     070816 300  0.2+  0.1-  

060720 644  0.1+  0.0     070814 300  0.7+  0.2+    070816 300  0.4+  0.1+  

060720 644  0.1+  0.2+    070814 300  0.3+  0.1+    070816 300  0.3-  0.7-  

060720 644  0.2+  0.0     070815 300  0.6-  0.0     070905 703  0.7+  0.1+  

060720 644  0.5+  0.3+    070815 300  0.0   0.4-    070905 703  0.4+  1.2+  

060720 644  0.2+  0.3-    070816 300  0.2-  0.3-    070905 703  0.0   0.5+  

060726 644  0.3-  0.0     070816 300  0.1-  0.5-    070905 703  1.3-  0.3+  

060726 644  0.7-  0.1-    070816 300  0.1-  0.6-                            

 

 

2007 PG29 (A00357)

Epoch 2007 Aug. 8.0 TT = JDT 2454320.5                  Nakano

M  14.95678              (2000.0)            P               Q

n   0.17220990     Peri.   12.83176     +0.61901706     +0.76299198

a   3.1996119      Node   295.72841     -0.73759530     +0.48336348

e   0.1873730      Incl.   11.92688     -0.26976108     +0.42918875

P   5.72           H   15.5           G   0.15           U   *

Residuals in seconds of arc 

070812 704  0.6-  0.9+    070815 300  1.2+  0.1-    070818 300  0.0   0.2+  

070812 704  0.1-  0.1-    070815 300  0.0   0.3-    070905 703  0.9-  0.1-  

070812 704  0.1+  0.2+    070816 300  0.1-  0.5+    070905 703  0.2-  1.4+  

070812 704  0.1+  0.1-    070816 300  0.3+  0.8-    070905 703  0.5-  1.1-  

070812 704  0.0   0.5-    070816 300  0.5-  0.2-    070905 703  1.6+  0.3-  

070815 300  0.2+  0.2-    070818 300  0.7-  0.5+                            

 

 

2007 QF (A00360)

Epoch 2007 Oct. 27.0 TT = JDT 2454400.5                 Nakano

M  29.50324              (2000.0)            P               Q

n   0.22624473     Peri.    7.89419     +0.67175072     +0.71871335

a   2.6673729      Node   304.51860     -0.69099411     +0.52063689

e   0.1769509      Incl.   12.57948     -0.26697961     +0.46085611

P   4.36           H   15.6           G   0.15           U   3

Residuals in seconds of arc 

030917 644  0.0   0.5-    070812 704  0.2-  0.7+    070822 691  0.3-  0.0   

030917 644  0.2+  0.2+    070812 704  0.8-  0.4+    070822 691  0.4-  0.1-  

030917 644  0.0   0.3+    070812 704  0.0   0.4+    070908 699  0.2-  0.5-  

031017 699  0.6-  0.4+    070812 704  0.3-  0.2+    070908 699  0.3+  0.1+  

031017 699  0.3+  0.6+    070812 704  0.2-  0.1+    070908 699  0.7-  0.2+  

031017 699  0.0   0.6-    070816 300  0.0   0.2-    070908 699  0.8+  0.2-  

031017 699  0.3+  0.4+    070816 300  0.1-  0.4-    070912 240  0.3-  0.4-  

031114 644  0.0   0.1-    070817 300  0.2-  0.3+    070912 240  0.1-  0.6-  

031114 644  0.2-  0.2-    070817 300  0.1+  0.4+    070912 240  0.4+  0.7-  

031114 644  0.1-  0.3-    070822 704  0.6-  0.8+    070913 699  1.1+  0.7+  

070720 704  0.5+  0.7-    070822 704  1.5+  0.2-    070913 699  0.1+  0.4+  

070720 704  0.4-  1.1-    070822 704  0.9+  0.2-    070913 699  0.0   0.1-  

070720 704  0.5-  0.5+    070822 691  0.4-  0.0                             

070720 704  0.6+  0.3+    070822 704  0.6-  0.4-                            

 

 

2007 QG = 2004 XA184 (AA00361)

Epoch 2007 Oct. 27.0 TT = JDT 2454400.5                 Nakano

M   7.67395              (2000.0)            P               Q

n   0.27144047     Peri.   94.78455     +0.96799710     +0.23660064

a   2.3623975      Node   251.54764     -0.25063207     +0.89433313

e   0.1459296      Incl.    5.06073     -0.01285198     +0.37972146

P   3.63           H   16.6           G   0.15           U   3

Residuals in seconds of arc 

980202 691  0.0   0.1-    070812 704  0.3-  0.1-    070818 D29  1.0-  0.5+  

980202 691 (5.9+  1.0-)   070812 704  0.4+  0.3-    070818 D29  0.4-  0.1-  

980202 691  0.0   0.1+    070812 704  0.4+  0.3+    070822 704  0.0   0.3-  

041209 691  1.3-  0.6-    070812 704  0.1+  0.4+    070822 704  0.1-  0.0   

041209 691  0.2+  0.3+    070816 300  0.2+  0.1-    070822 704  0.9-  0.0   

041209 691  0.2+  0.2+    070816 300  0.3+  0.2-    070822 704  0.3+  0.7-  

041218 691  0.2+  0.0     070817 300  0.1+  0.3+    070913 699  0.2-  0.0   

041218 691  0.3+  0.2-    070817 300  0.3-  0.3+    070913 699  0.9-  0.5+  

041218 691  0.4+  0.2+    070818 D29  0.7+  0.3-    070913 699  0.5+  0.2+  

070812 704  0.4+  0.2-    070818 D29  0.3-  0.1-    070913 699  1.0+  0.1-  

 

 

2007 QH (A00362)

Epoch 2007 Oct. 27.0 TT = JDT 2454400.5                 Nakano

M  22.61179              (2000.0)            P               Q

n   0.18109929     Peri.  358.02902     +0.73333909     +0.65281402

a   3.0940325      Node   319.05663     -0.61973143     +0.52705282

e   0.1639485      Incl.   16.84164     -0.27954736     +0.54410401

P   5.44           H   15.1           G   0.15           U   3

Residuals in seconds of arc 

021006 699  0.3-  0.4+    070813 704  0.7-  1.3-    070823 A50  0.6+  0.2+  

021006 699  0.2-  0.4+    070816 704  0.3-  0.2-    070823 A50  0.3+  0.1-  

021006 699  0.4+  0.3-    070816 704  0.2+  1.2-    070823 A50  0.1-  0.4-  

021006 699  0.5-  0.4+    070816 704  0.1+  0.7+    070823 A50  0.4+  0.4-  

021114 644  0.3+  0.2-    070816 704  0.4+  0.2+    070910 703  0.0   0.3-  

021114 644  0.2+  0.2-    070816 704  0.6+  0.2-    070910 703  0.2-  0.4+  

021114 644  0.2+  0.3-    070816 300  0.5-  0.4-    070910 703  0.1+  0.2+  

070711 D35  0.4+  0.4+    070816 300  0.7-  0.2-    070910 703  0.9-  0.3+  

070711 D35  0.1+  0.0     070817 300  0.3-  0.4-    070911 703  0.4+  1.1+  

070711 D35  0.5-  0.4+    070817 300  0.4-  0.5-    070911 703  0.3+  0.0   

070813 704  0.3+  0.9+    070822 699  0.7+  0.4+    070911 703  1.4+  0.7+  

070813 704  0.3-  1.2-    070822 704  0.5-  0.6-    070911 703  0.3+  1.1+  

070813 704  0.3-  0.0     070822 704  0.0   0.2+    070914 704  0.5-  0.4-  

070813 704 (2.4-  0.0 )   070822 704  0.5-  0.1+    070914 704  0.0   0.1-  

070813 704  0.2-  0.1+    070822 699  0.1-  1.5+    070914 704  0.3-  0.5-  

070813 704 (3.7-  0.1-)   070822 704  0.2+  0.2+    070914 704  0.7-  0.5-  

070813 704  0.0   0.7+    070822 704  0.2+  0.6-    070914 704  0.4+  0.3-  

070813 704  0.3+  0.7+    070822 699  0.7+  0.5-                            

 

 

2007 QJ (A00363) = 1998 QU108

Epoch 2007 Oct. 27.0 TT = JDT 2454400.5                 Nakano

M  31.64522              (2000.0)            P               Q

n   0.21940082     Peri.  355.65232     +0.59847042     +0.79099841

a   2.7225585      Node   311.04964     -0.72986037     +0.47289396

e   0.1891419      Incl.    9.70280     -0.33035890     +0.38819173

P   4.49           H   15.2           G   0.15           U   3

Residuals in seconds of arc 

980817 704  0.7-  1.0-    070813 704  0.5-  0.2-    070910 703  0.1+  0.0   

980817 704  0.4+  1.6-    070813 704  0.3-  0.0     070910 703  0.1-  0.5+  

980817 704  0.5+  0.4-    070813 704  0.0   0.3+    070910 703  0.2+  0.2+  

980817 704  1.0+  1.8-    070813 704  0.2-  0.0     070910 703  0.7+  0.5+  

980817 704  1.6+  0.3+    070813 704  0.0   0.0     070910 703  0.3-  0.4+  

980823 699  1.5+  0.6-    070816 704  0.2+  0.3+    070910 703  0.7+  0.7+  

980823 699  0.2-  0.8-    070816 704  0.0   0.1-    070910 703  0.5-  0.3+  

980823 699  0.5-  0.6-    070816 704  0.1-  0.1+    070913 699  0.7-  0.8-  

050118 691  0.1+  0.2-    070816 704  0.5-  1.1+    070913 699  0.6-  0.0   

050118 691  0.2-  0.3-    070816 704  0.1+  0.4+    070913 699  0.4-  0.5-  

050118 691  0.0   0.2-    070816 300  0.4-  0.2-    070913 699  0.0   0.2-  

050304 G96  0.5+  0.3-    070816 300  0.6-  0.2+    070914 704  0.1-  0.2+  

050304 G96  0.4-  0.3-    070817 300  0.1-  0.2-    070914 704  0.3+  0.2+  

050304 G96  0.2-  0.3-    070817 300  0.3-  0.0     070914 704  0.0   0.1-  

050304 G96  0.7-  0.4-    070822 704  0.1-  0.4+    070914 704  0.1+  0.2+  

070720 704  0.1-  0.3-    070822 704  0.1+  0.0     070914 704  0.0   0.4-  

070720 704  1.0+  0.8+    070822 704  0.0   0.0     070916 704  0.8+  0.4-  

070720 704  0.6+  0.0     070822 704  0.1-  0.3+    070916 704  0.2-  0.5+  

